Location: Peach Mountain Observatory
(42.3967°N, 83.9367°W)
Time: 05:43:06
(UTC-05:00)

Courier 1B Rocket - All Passes

Search period start: 25 January 2020 00:00
Search period end: 04 February 2020 00:00
Orbit: 920 x 1202 km, 28.2° (Epoch: 24 January)

Date Brightness Start Highest point End Pass type
(mag) Time Alt. Az. Time Alt. Az. Time Alt. Az.
25 Jan - 11:11:07 10° SSW 11:14:53 15° SSE 11:18:33 10° SE daylight
25 Jan - 13:02:06 10° SW 13:07:26 23° S 13:12:31 10° SE daylight
25 Jan - 14:54:59 10° WSW 14:59:59 22° S 15:04:46 10° SE daylight
25 Jan - 16:50:01 10° SW 16:52:17 12° SSW 16:54:31 10° S daylight
26 Jan - 10:11:51 10° S 10:14:05 11° SSE 10:16:16 10° SE daylight
26 Jan - 12:01:21 10° SW 12:06:36 22° S 12:11:38 10° ESE daylight
26 Jan - 13:53:49 10° SW 13:59:12 24° S 14:04:20 10° SE daylight
26 Jan - 15:47:48 10° SW 15:51:37 16° SSW 15:55:20 10° SSE daylight
27 Jan - 11:00:49 10° SSW 11:05:45 19° SSE 11:10:31 10° ESE daylight
27 Jan - 12:52:44 10° SW 12:58:23 25° S 13:03:44 10° SE daylight
27 Jan - 14:46:10 10° WSW 14:50:55 20° SSW 14:55:28 10° SSE daylight
28 Jan - 10:00:38 10° SSW 10:04:54 16° SSE 10:09:04 10° SE daylight
28 Jan - 11:51:47 10° SW 11:57:32 24° S 12:02:59 10° ESE daylight
28 Jan - 13:44:47 10° WSW 13:50:10 23° S 13:55:15 10° SE daylight
28 Jan - 15:39:49 10° SW 15:42:30 13° SSW 15:45:06 10° S daylight
29 Jan - 09:01:07 10° S 09:04:04 12° SSE 09:06:57 10° SE daylight
29 Jan - 10:50:59 10° SW 10:56:38 23° S 11:02:03 10° ESE daylight
29 Jan - 12:43:33 10° WSW 12:49:19 25° S 12:54:48 10° SE daylight
29 Jan - 14:37:36 10° WSW 14:41:48 17° SSW 14:45:52 10° SSE daylight
30 Jan - 09:50:25 10° SSW 09:55:44 20° SSE 10:00:53 10° ESE daylight
30 Jan - 11:42:26 10° SW 11:48:26 26° S 11:54:09 10° SE daylight
30 Jan - 13:35:55 10° WSW 13:41:03 21° SSW 13:45:57 10° SSE daylight
31 Jan - 08:50:13 10° SSW 08:54:51 17° SSE 08:59:24 10° ESE daylight
31 Jan - 10:41:27 10° SW 10:47:31 26° S 10:53:20 10° ESE daylight
31 Jan - 12:34:30 10° WSW 12:40:13 24° S 12:45:41 10° SE daylight
31 Jan - 14:29:28 10° SW 14:32:39 13° SSW 14:35:43 10° S daylight
01 Feb - 07:50:39 10° S 07:53:59 13° SSE 07:57:17 10° SE daylight
01 Feb - 09:40:40 10° SW 09:46:35 24° S 09:52:20 10° ESE daylight
01 Feb - 11:33:14 10° WSW 11:39:20 26° S 11:45:09 10° SE daylight
01 Feb - 13:27:18 10° WSW 13:31:54 18° SSW 13:36:20 10° SSE daylight
02 Feb - 08:40:07 10° SSW 08:45:38 21° SSE 08:51:05 10° ESE daylight
02 Feb - 10:32:08 10° SW 10:38:24 27° S 10:44:26 10° SE daylight
02 Feb - 12:25:37 10° WSW 12:31:05 22° SSW 12:36:20 10° SSE daylight
03 Feb - 07:39:56 10° SSW 07:44:44 18° SSE 07:49:30 10° ESE daylight
03 Feb - 09:31:11 10° SW 09:37:26 27° S 09:43:32 10° ESE daylight
03 Feb - 11:24:12 10° WSW 11:30:12 25° S 11:35:59 10° SE daylight
03 Feb - 13:19:05 10° SW 13:22:41 14° SSW 13:26:12 10° S daylight
